Wind_Speed
21 21 20 20 21 21 22 21 21 22 23 23 23 23 22 21 21 21 20 20 19 18 18 18 18 18 17 16 16 15 15 15 15 14 13 13 13 13 13 13 12 12 12 12
22 22 21 22 22 22 22 22 23 24 24 23 23 23 22 22 22 22 21 20 20 19 19 19 19 19 19 18 17 17 16 16 15 15 14 14 14 14 13 13 13 14 14 13
21 21 22 22 22 22 22 22 23 24 24 24 24 23 23 22 22 22 21 21 21 20 20 20 20 20 19 19 18 18 17 17 17 16 15 15 14 14 13 14 14 15 15 14
21 21 22 22 22 22 22 23 24 24 24 24 23 23 23 22 22 22 22 21 22 21 20 20 20 20 20 19 19 18 19 19 18 18 17 16 16 15 15 15 15 15 15 16
22 22 22 21 22 22 22 24 25 25 25 25 24 23 22 22 22 22 23 23 22 23 22 21 21 20 20 20 20 20 20 20 19 19 18 18 17 16 16 17 17 16 16 16
23 23 23 22 23 23 23 23 24 25 24 25 23 23 22 23 23 23 23 24 23 23 22 21 20 20 21 21 21 20 20 19 19 19 17 17 18 17 17 17 17 16 16 16
24 24 23 23 24 24 23 23 23 23 24 23 23 23 23 24 23 23 23 24 24 23 22 21 20 20 20 20 21 20 20 19 19 19 18 18 18 18 18 18 18 17 17 17
24 24 24 24 24 23 23 23 23 22 21 21 23 23 23 23 22 22 22 23 22 21 21 21 20 20 20 20 21 21 20 20 20 21 20 20 20 20 19 19 19 19 19 19
24 24 25 25 24 24 24 24 23 23 22 22 22 24 23 21 21 20 20 21 21 21 20 20 20 20 21 21 21 21 21 21 21 21 21 21 20 20 20 20 20 20 19 19
25 25 26 26 26 26 25 24 24 24 23 21 22 23 22 21 20 19 19 20 21 20 20 20 20 21 21 22 22 22 21 21 21 21 22 22 21 22 21 21 20 20 20 20
25 25 26 26 26 26 26 26 26 25 24 22 21 22 22 22 20 20 21 20 20 20 20 20 20 21 21 22 22 22 22 22 22 22 22 22 23 24 23 22 22 21 22 22
25 24 24 26 26 25 25 26 26 26 26 24 22 21 22 21 20 20 20 20 20 20 20 20 20 21 21 21 21 22 22 23 23 23 23 23 23 24 24 23 23 22 22 22
24 24 23 24 25 26 26 26 26 25 26 25 24 21 22 21 20 20 20 21 20 20 20 21 20 20 21 21 22 22 23 23 23 23 23 23 23 23 23 23 23 22 22 22
25 25 24 23 22 24 25 25 25 25 24 25 25 24 24 22 22 21 20 21 21 21 21 22 21 21 21 21 22 22 23 23 23 23 24 23 23 22 22 21 21 21 21 21
24 25 24 24 24 24 25 24 25 25 24 24 24 24 24 23 22 21 21 21 21 22 21 21 22 22 21 21 22 22 22 23 23 22 22 22 21 20 19 19 20 21 21 21
24 24 24 24 25 25 25 25 25 26 26 25 25 23 23 23 22 22 22 21 22 22 22 22 22 21 21 22 23 23 22 23 22 21 21 20 20 19 19 19 19 20 20 20
24 24 23 24 25 26 26 25 25 25 25 25 25 24 23 23 23 23 22 22 22 22 22 22 22 22 22 22 23 23 22 22 22 22 21 20 20 19 19 19 20 20 20 20
23 24 24 24 25 27 26 26 25 25 25 25 25 24 23 23 22 23 22 23 23 22 23 23 23 23 23 23 23 23 22 22 22 21 21 20 20 20 20 20 20 20 21 21
22 24 24 24 25 26 26 26 25 26 26 25 25 25 24 23 23 23 22 23 23 24 24 23 23 23 24 23 22 22 22 22 21 21 21 21 21 21 21 21 21 20 20 20
23 24 24 24 25 26 25 25 25 26 27 26 25 24 24 24 24 24 23 24 24 24 23 23 24 24 23 23 23 22 23 23 22 22 21 21 21 21 21 21 21 20 20 20
21 23 25 25 26 27 27 26 25 26 26 25 25 25 24 24 25 25 24 24 25 24 24 24 24 24 23 23 23 23 22 22 23 22 22 21 21 21 20 20 20 19 20 20
21 22 23 24 26 27 26 26 27 27 25 24 24 24 23 24 24 25 24 24 25 25 24 24 24 24 24 24 24 24 23 23 23 22 22 21 20 20 20 20 20 19 19 20
21 21 22 24 25 25 25 25 26 26 25 24 24 23 23 23 24 24 24 25 26 25 24 25 25 24 24 24 24 24 24 23 23 22 21 20 20 20 20 20 20 20 19 20
20 20 21 23 25 26 26 25 25 25 25 24 24 23 23 23 23 23 23 24 25 25 25 25 25 25 24 24 23 24 24 23 23 22 21 20 20 20 20 20 20 20 19 19
20 20 21 22 22 23 23 24 24 23 23 23 23 23 23 24 24 24 24 24 25 25 25 25 26 25 25 25 25 25 25 24 23 22 21 21 21 21 21 20 20 20 19 19
19 20 21 21 21 21 22 22 22 22 21 22 22 22 22 23 22 23 23 24 25 25 25 26 26 25 25 25 25 24 24 24 24 23 22 22 22 21 21 21 21 21 20 19
Wind_Direction
240 240 241 242 241 240 242 241 243 248 250 250 250 252 253 255 258 259 259 260 261 262 265 267 268 267 265 267 269 269 270 271 275 279 279 282 278 274 271 266 265 266 267 268
240 241 242 243 243 242 243 244 246 248 249 250 251 253 255 255 258 260 261 261 262 262 263 266 267 266 265 265 265 266 267 269 272 274 276 276 276 274 269 265 263 264 266 267
242 242 242 242 243 243 244 244 247 249 250 251 253 256 256 257 257 259 260 261 262 262 263 264 265 266 264 263 263 263 266 267 269 271 272 274 274 271 267 260 258 262 265 265
242 242 242 242 243 244 245 247 249 250 252 254 255 257 258 256 256 256 258 260 262 262 264 264 264 263 261 259 260 263 265 267 267 267 269 271 272 268 263 259 259 263 262 263
243 243 242 241 242 244 245 248 249 250 253 255 257 259 261 258 254 254 256 259 261 262 263 263 262 260 259 259 260 262 263 264 264 266 269 268 269 265 262 259 260 262 262 262
245 245 242 242 242 244 246 249 250 251 254 256 258 260 258 258 256 254 257 259 260 260 262 262 259 258 258 259 260 261 260 263 264 267 269 268 267 264 262 261 261 262 262 262
246 247 244 243 244 245 246 248 250 252 253 257 259 260 258 259 257 256 257 259 261 260 260 260 258 258 259 258 258 260 260 263 267 269 270 269 266 264 262 262 262 263 265 265
247 248 246 244 246 248 247 246 245 249 255 258 260 260 259 261 260 258 257 258 259 260 261 260 258 258 259 258 258 261 263 265 267 268 268 269 267 263 263 263 262 263 264 265
246 247 247 247 247 246 248 245 245 248 252 254 257 259 260 261 261 261 259 258 258 258 260 259 259 259 260 261 260 260 262 264 267 267 268 268 266 264 265 265 263 262 263 263
245 246 247 248 248 246 245 245 244 246 251 256 259 261 264 260 260 259 257 258 258 259 262 260 260 260 261 260 261 260 260 264 267 268 268 266 264 265 266 264 262 262 263 264
245 246 248 247 246 247 247 245 246 247 248 251 258 261 261 262 260 258 257 258 257 258 261 260 260 261 262 261 261 260 260 263 266 267 268 265 264 264 265 262 261 260 262 263
245 245 247 247 246 245 246 246 247 247 248 248 251 259 258 259 259 259 258 258 258 259 261 261 261 263 263 261 261 260 261 263 263 265 266 264 265 263 261 260 261 259 261 262
243 244 246 247 247 245 244 243 244 246 248 247 248 257 259 257 256 257 258 258 259 261 260 261 261 263 262 262 263 263 262 263 263 265 266 264 263 263 261 261 260 260 262 262
242 244 244 245 247 247 246 245 245 244 246 248 247 251 256 256 255 255 256 257 259 260 261 260 260 263 263 264 266 267 265 264 263 262 262 263 263 261 260 261 260 261 263 264
242 243 244 243 244 245 244 243 243 242 243 247 249 251 253 255 256 255 256 257 259 260 261 261 262 264 264 265 267 268 266 264 261 261 261 262 264 263 261 264 264 264 265 265
241 243 245 245 244 245 244 243 243 244 244 248 251 253 253 254 256 254 254 255 257 259 261 263 264 263 265 267 266 267 263 260 260 262 262 262 266 267 265 265 265 266 266 266
242 244 246 246 245 247 245 243 245 246 246 249 251 255 255 256 255 255 255 255 254 258 261 264 263 263 262 264 264 263 261 259 259 259 259 261 262 263 263 264 266 268 269 268
243 243 245 246 246 247 247 245 245 246 247 250 252 253 256 257 256 257 256 254 255 257 260 263 265 264 263 263 263 260 258 258 258 257 257 259 260 261 263 264 267 269 270 269
246 245 246 246 247 250 248 245 245 246 247 248 251 252 253 254 255 256 255 255 256 256 258 260 262 263 262 262 261 258 255 256 257 257 258 259 260 261 263 264 268 268 268 268
246 246 246 245 245 249 248 246 246 248 250 251 251 251 252 252 254 256 256 256 257 256 257 257 261 264 262 259 259 256 254 255 257 257 257 258 260 262 263 264 266 267 268 268
247 248 247 245 246 249 248 246 247 250 251 252 252 253 253 252 253 255 256 256 257 258 258 259 262 262 260 257 256 255 256 256 255 256 257 257 259 260 263 264 266 267 268 269
251 250 249 246 248 247 248 249 250 251 250 252 253 254 252 252 253 254 256 258 257 258 259 259 259 259 257 256 256 256 256 256 255 255 256 256 258 261 265 266 266 267 268 269
250 250 250 248 248 249 248 250 252 251 250 252 253 254 253 253 254 254 256 257 258 259 260 259 258 258 255 254 255 255 255 255 255 254 255 255 258 261 263 265 267 267 269 272
252 252 253 249 248 250 250 251 252 250 249 250 251 252 251 252 253 252 254 256 256 257 257 257 258 258 255 254 254 254 254 254 254 254 256 258 260 262 264 265 267 268 269 272
257 256 255 254 253 252 250 250 249 248 249 248 248 249 248 251 253 253 255 254 253 252 254 256 258 258 256 256 255 255 257 256 254 255 257 258 259 262 264 265 267 269 270 270
255 255 256 256 255 252 248 247 246 245 245 245 245 246 248 251 253 254 255 255 253 253 255 256 257 258 256 256 256 257 258 255 251 252 255 257 259 262 264 266 268 267 268 268
Height
5826 5829 5831 5833 5834 5836 5838 5840 5842 5843 5843 5845 5847 5848 5849 5850 5850 5851 5851 5852 5853 5853 5853 5853 5853 5853 5853 5853 5853 5853 5854 5853 5853 5853 5852 5851 5851 5851 5851 5851 5851 5851 5851 5851
5822 5824 5826 5827 5829 5831 5833 5835 5837 5838 5838 5840 5841 5843 5844 5845 5846 5846 5846 5847 5847 5848 5849 5849 5849 5849 5849 5849 5850 5850 5850 5850 5850 5850 5849 5849 5848 5848 5848 5848 5848 5848 5848 5848
5816 5820 5820 5822 5824 5826 5828 5830 5832 5832 5833 5835 5836 5838 5839 5840 5840 5841 5841 5842 5842 5843 5844 5844 5844 5844 5845 5845 5846 5846 5846 5846 5846 5846 5846 5845 5845 5845 5844 5844 5845 5845 5844 5844
5810 5813 5815 5817 5819 5821 5823 5825 5826 5827 5828 5830 5831 5833 5834 5834 5835 5835 5836 5836 5837 5838 5839 5839 5840 5840 5840 5841 5841 5842 5842 5842 5842 5842 5842 5842 5841 5841 5840 5841 5841 5841 5841 5841
5806 5808 5810 5812 5814 5816 5818 5819 5820 5822 5823 5824 5826 5827 5829 5828 5829 5830 5830 5831 5832 5832 5833 5834 5834 5835 5836 5836 5837 5837 5837 5838 5838 5838 5837 5837 5837 5837 5836 5836 5837 5837 5837 5837
5800 5802 5804 5807 5808 5810 5812 5813 5815 5816 5817 5819 5820 5822 5823 5823 5824 5824 5825 5825 5826 5827 5828 5828 5829 5830 5830 5831 5832 5832 5833 5833 5833 5833 5833 5833 5832 5832 5832 5832 5832 5832 5832 5832
5795 5796 5798 5800 5802 5804 5806 5809 5810 5811 5812 5814 5814 5815 5816 5817 5818 5819 5819 5820 5820 5821 5822 5823 5824 5825 5825 5826 5826 5827 5828 5828 5828 5828 5828 5828 5827 5827 5827 5827 5827 5828 5828 5828
5789 5791 5793 5795 5797 5799 5800 5803 5806 5808 5809 5810 5808 5808 5811 5811 5812 5812 5813 5814 5815 5816 5817 5818 5819 5820 5820 5821 5821 5822 5822 5823 5823 5823 5823 5823 5822 5822 5822 5822 5822 5822 5823 5823
5783 5785 5787 5788 5791 5793 5794 5796 5799 5801 5802 5803 5803 5803 5804 5805 5806 5807 5808 5808 5810 5811 5812 5813 5814 5814 5815 5816 5816 5817 5817 5817 5817 5817 5817 5817 5817 5817 5817 5817 5817 5817 5818 5818
5776 5779 5780 5782 5784 5786 5788 5790 5792 5794 5795 5797 5798 5798 5799 5800 5801 5802 5802 5803 5804 5806 5807 5808 5808 5809 5810 5810 5810 5811 5812 5812 5812 5812 5811 5811 5811 5811 5812 5812 5812 5812 5812 5813
5769 5772 5774 5775 5777 5779 5782 5784 5785 5788 5790 5792 5793 5796 5794 5794 5795 5796 5797 5798 5799 5800 5801 5802 5803 5803 5804 5804 5805 5805 5806 5806 5806 5806 5806 5806 5806 5806 5806 5806 5806 5807 5807 5807
5762 5765 5767 5769 5771 5772 5774 5777 5779 5781 5783 5784 5787 5791 5788 5788 5789 5790 5791 5792 5793 5794 5795 5796 5797 5797 5798 5799 5799 5799 5800 5800 5800 5800 5800 5800 5800 5800 5800 5800 5800 5801 5801 5801
5755 5758 5760 5762 5765 5766 5767 5769 5772 5774 5776 5778 5780 5785 5781 5782 5783 5784 5785 5786 5787 5789 5790 5790 5791 5792 5792 5793 5793 5793 5794 5794 5793 5793 5793 5793 5794 5794 5794 5794 5794 5795 5795 5795
5749 5751 5754 5757 5758 5759 5760 5763 5765 5767 5769 5771 5774 5776 5776 5777 5778 5779 5780 5781 5782 5783 5784 5785 5786 5786 5787 5787 5787 5787 5787 5787 5787 5787 5787 5787 5787 5787 5788 5788 5788 5789 5789 5789
5741 5744 5746 5748 5750 5752 5753 5756 5758 5760 5762 5765 5767 5769 5770 5771 5772 5773 5774 5775 5776 5777 5778 5779 5780 5780 5780 5781 5781 5781 5780 5780 5780 5780 5780 5781 5781 5781 5781 5782 5782 5783 5783 5784
5734 5737 5739 5741 5743 5745 5747 5749 5751 5753 5756 5758 5760 5762 5764 5764 5766 5767 5768 5769 5771 5772 5772 5773 5773 5774 5774 5775 5775 5775 5775 5775 5775 5775 5775 5775 5775 5775 5775 5776 5777 5777 5777 5777
5728 5730 5732 5734 5736 5737 5740 5743 5745 5747 5749 5752 5753 5756 5757 5759 5760 5761 5762 5763 5764 5765 5767 5767 5767 5767 5768 5768 5768 5769 5769 5769 5769 5769 5769 5770 5770 5770 5771 5771 5771 5771 5771 5771
5722 5723 5725 5727 5729 5730 5735 5736 5738 5741 5743 5745 5747 5749 5751 5752 5753 5754 5756 5757 5758 5759 5760 5761 5761 5761 5761 5762 5762 5762 5763 5763 5763 5763 5764 5764 5764 5765 5765 5766 5766 5766 5765 5765
5715 5717 5719 5721 5722 5724 5727 5729 5731 5733 5735 5738 5740 5742 5744 5745 5747 5747 5749 5750 5751 5753 5754 5754 5755 5755 5755 5755 5755 5756 5756 5757 5757 5757 5758 5759 5759 5760 5760 5760 5760 5760 5759 5759
5709 5710 5713 5714 5716 5718 5721 5722 5724 5727 5728 5731 5732 5734 5736 5738 5740 5741 5742 5743 5744 5745 5746 5747 5748 5748 5748 5748 5749 5749 5750 5751 5751 5751 5752 5753 5753 5754 5754 5754 5754 5754 5754 5753
5702 5703 5705 5707 5708 5710 5713 5714 5717 5721 5722 5723 5724 5726 5728 5730 5732 5734 5735 5736 5737 5738 5739 5740 5741 5741 5741 5742 5742 5743 5743 5744 5745 5746 5746 5747 5747 5748 5748 5748 5748 5748 5748 5747
5696 5697 5698 5700 5702 5705 5705 5708 5710 5711 5713 5715 5716 5718 5720 5722 5724 5726 5727 5728 5730 5731 5732 5733 5733 5734 5734 5735 5736 5736 5737 5738 5739 5740 5740 5741 5741 5742 5742 5742 5742 5742 5742 5742
5689 5691 5692 5694 5696 5696 5698 5699 5701 5703 5705 5707 5709 5711 5713 5715 5717 5719 5720 5721 5722 5723 5724 5725 5726 5727 5727 5728 5729 5729 5730 5731 5732 5733 5734 5734 5735 5735 5736 5736 5736 5736 5736 5735
5683 5684 5684 5685 5687 5689 5690 5691 5693 5695 5697 5700 5701 5703 5705 5708 5709 5711 5712 5713 5715 5716 5717 5718 5719 5719 5720 5721 5722 5722 5723 5724 5725 5726 5727 5728 5728 5729 5729 5730 5730 5729 5729 5729
5677 5677 5677 5678 5680 5681 5682 5684 5686 5688 5690 5692 5694 5696 5698 5700 5702 5703 5704 5706 5707 5708 5709 5710 5711 5712 5713 5714 5714 5715 5716 5717 5718 5719 5720 5721 5722 5723 5723 5723 5723 5723 5723 5723
5670 5670 5671 5672 5673 5674 5675 5677 5679 5681 5683 5685 5687 5689 5691 5692 5694 5695 5697 5698 5699 5700 5701 5702 5703 5704 5705 5706 5707 5708 5709 5710 5711 5713 5714 5715 5716 5716 5716 5717 5717 5717 5717 5717